LPA5855 UHWW-UHHH

Flight info

Callsign LPA5855
Flight time N/A
Altitude 410
Route K0915F410 DOLMA2F DOLMA B356 TD B355 ARDEL ARDEL6G
Aircraft A359/H-SDE2E3GHIJ3J4J5LM1ORWXY/LB1D1

Departure

Time 2026-04-20 19:57
Airport Vladivostok International Airport (UHWW)

Arrival

Time N/A
Airport Khabarovsk Novy Airport (UHHH)
Time Latitude Longitude Altitude Speed Heading
2026-04-20 19:04 43.39814 132.16273 39 ft 0 kts 152°
2026-04-20 19:41 43.39799 132.16285 39 ft 6 kts 145°
2026-04-20 19:41 43.39787 132.16343 39 ft 9 kts 86°
2026-04-20 19:41 43.39816 132.16447 39 ft 15 kts 65°
2026-04-20 19:42 43.39874 132.16590 39 ft 20 kts 61°
2026-04-20 19:42 43.39947 132.16777 39 ft 24 kts 61°
2026-04-20 19:42 43.39986 132.16873 39 ft 9 kts 59°
2026-04-20 19:42 43.40013 132.16934 39 ft 13 kts 60°
2026-04-20 19:43 43.40052 132.17032 39 ft 0 kts 61°
2026-04-20 19:44 43.40061 132.17055 39 ft 6 kts 59°
2026-04-20 19:44 43.40104 132.17082 39 ft 0 kts 354°
2026-04-20 19:45 43.40108 132.17081 39 ft 3 kts 351°
2026-04-20 19:45 43.40138 132.17066 39 ft 0 kts 336°
2026-04-20 19:46 43.40153 132.17056 39 ft 6 kts 334°
2026-04-20 19:46 43.40176 132.17041 39 ft 0 kts 333°
2026-04-20 19:48 43.40182 132.17036 39 ft 4 kts 332°
2026-04-20 19:48 43.40217 132.17010 39 ft 0 kts 330°
2026-04-20 19:49 43.40233 132.16997 39 ft 6 kts 330°
2026-04-20 19:49 43.40251 132.16983 39 ft 0 kts 330°
2026-04-20 19:51 43.40253 132.16982 39 ft 2 kts 330°
2026-04-20 19:51 43.40279 132.16961 39 ft 0 kts 330°
2026-04-20 19:52 43.40294 132.16950 39 ft 6 kts 330°
2026-04-20 19:52 43.40314 132.16935 39 ft 0 kts 332°
2026-04-20 19:54 43.40321 132.16930 39 ft 4 kts 332°
2026-04-20 19:54 43.40369 132.16895 39 ft 11 kts 332°
2026-04-20 19:54 43.40426 132.16803 38 ft 15 kts 269°
2026-04-20 19:55 43.40417 132.16764 38 ft 0 kts 243°
2026-04-20 19:56 43.40400 132.16719 38 ft 27 kts 243°
2026-04-20 19:57 43.40151 132.16098 39 ft 118 kts 240°
2026-04-20 19:57 43.39640 132.14812 201 ft 176 kts 242°
2026-04-20 19:57 43.39072 132.13336 1262 ft 172 kts 241°
2026-04-20 19:57 43.38499 132.11845 2097 ft 180 kts 243°
2026-04-20 19:58 43.37878 132.10319 2762 ft 188 kts 243°
2026-04-20 19:58 43.37190 132.08740 3461 ft 194 kts 242°
2026-04-20 19:58 43.36462 132.07161 4224 ft 198 kts 242°
2026-04-20 19:58 43.35693 132.05558 4782 ft 202 kts 242°
2026-04-20 19:59 43.34905 132.03955 4988 ft 203 kts 242°
2026-04-20 19:59 43.34108 132.02343 4995 ft 206 kts 242°
2026-04-20 19:59 43.33281 132.00649 4969 ft 219 kts 242°
2026-04-20 19:59 43.32442 131.98918 4995 ft 220 kts 242°
2026-04-20 20:00 43.31582 131.97147 5000 ft 220 kts 242°
2026-04-20 20:00 43.30743 131.95426 4987 ft 219 kts 242°
2026-04-20 20:00 43.29891 131.93687 4992 ft 219 kts 242°
2026-04-20 20:00 43.29044 131.91954 4999 ft 219 kts 242°
2026-04-20 20:01 43.28194 131.90214 4999 ft 219 kts 242°
2026-04-20 20:01 43.27348 131.88480 5000 ft 219 kts 242°
2026-04-20 20:01 43.26498 131.86740 5001 ft 219 kts 242°
2026-04-20 20:01 43.25652 131.85006 4997 ft 219 kts 242°
2026-04-20 20:02 43.24805 131.83268 4998 ft 219 kts 242°
2026-04-20 20:02 43.23960 131.81529 4994 ft 219 kts 242°
2026-04-20 20:02 43.23115 131.79788 5002 ft 219 kts 242°
2026-04-20 20:02 43.22471 131.77932 5003 ft 213 kts 262°
2026-04-20 20:03 43.22619 131.75969 5123 ft 209 kts 294°
2026-04-20 20:03 43.23609 131.74495 5823 ft 219 kts 326°
2026-04-20 20:03 43.25106 131.74031 6913 ft 230 kts 354°
2026-04-20 20:03 43.26685 131.74637 7930 ft 244 kts 15°
2026-04-20 20:04 43.28204 131.75688 8835 ft 251 kts 19°
2026-04-20 20:04 43.29753 131.76832 9482 ft 255 kts 19°
2026-04-20 20:04 43.31316 131.77997 9681 ft 256 kts 19°
2026-04-20 20:04 43.32886 131.79170 9700 ft 258 kts 19°
2026-04-20 20:05 43.34464 131.80346 9957 ft 261 kts 19°
2026-04-20 20:05 43.36075 131.81538 10756 ft 263 kts 19°
2026-04-20 20:05 43.37687 131.82736 11746 ft 264 kts 19°
2026-04-20 20:05 43.39317 131.83951 12697 ft 268 kts 19°
2026-04-20 20:06 43.40969 131.85181 13619 ft 272 kts 19°
2026-04-20 20:06 43.42652 131.86435 14432 ft 277 kts 19°
2026-04-20 20:06 43.44363 131.87701 15273 ft 282 kts 19°
2026-04-20 20:06 43.46093 131.89108 15893 ft 302 kts 27°
2026-04-20 20:07 43.47817 131.90944 16254 ft 328 kts 32°
2026-04-20 20:07 43.49591 131.93075 16596 ft 350 kts 36°
2026-04-20 20:07 43.51419 131.95445 16948 ft 370 kts 38°
2026-04-20 20:07 43.53305 131.97980 17356 ft 384 kts 38°
2026-04-20 20:08 43.55229 132.00596 17947 ft 392 kts 39°
2026-04-20 20:08 43.57159 132.03212 18484 ft 398 kts 38°
2026-04-20 20:08 43.59156 132.05898 19051 ft 404 kts 38°
2026-04-20 20:08 43.61183 132.08603 19623 ft 408 kts 38°
2026-04-20 20:09 43.63245 132.11340 20204 ft 413 kts 38°
2026-04-20 20:09 43.65329 132.14098 20780 ft 418 kts 38°
2026-04-20 20:09 43.67445 132.16897 21340 ft 423 kts 38°
2026-04-20 20:09 43.69579 132.19720 21879 ft 428 kts 38°
2026-04-20 20:10 43.71745 132.22591 22417 ft 433 kts 38°
2026-04-20 20:10 43.73930 132.25492 22959 ft 438 kts 38°
2026-04-20 20:10 43.76146 132.28438 23435 ft 443 kts 38°
2026-04-20 20:10 43.78388 132.31424 23918 ft 447 kts 38°
2026-04-20 20:11 43.80631 132.34415 24398 ft 450 kts 39°
2026-04-20 20:11 43.82885 132.37425 24880 ft 453 kts 39°
2026-04-20 20:11 43.85172 132.40481 25400 ft 456 kts 39°
2026-04-20 20:11 43.87453 132.43534 25908 ft 459 kts 39°
2026-04-20 20:12 43.89767 132.46632 26422 ft 462 kts 40°
2026-04-20 20:12 43.92079 132.49730 26946 ft 465 kts 40°
2026-04-20 20:12 43.94425 132.52879 27493 ft 468 kts 40°
2026-04-20 20:13 43.99123 132.59193 28561 ft 475 kts 41°
2026-04-20 20:13 44.01515 132.62415 29120 ft 477 kts 41°
2026-04-20 20:13 44.03869 132.65589 29632 ft 480 kts 42°
2026-04-20 20:13 44.06311 132.68886 30075 ft 484 kts 42°
2026-04-20 20:14 44.08742 132.72173 30443 ft 489 kts 43°
2026-04-20 20:14 44.11156 132.75439 30817 ft 493 kts 43°
2026-04-20 20:14 44.13624 132.78784 31190 ft 498 kts 43°
2026-04-20 20:14 44.16116 132.82165 31550 ft 502 kts 43°
2026-04-20 20:15 44.18635 132.85587 31894 ft 507 kts 43°
2026-04-20 20:15 44.21169 132.89035 32212 ft 512 kts 43°
2026-04-20 20:15 44.23729 132.92522 32523 ft 517 kts 44°
2026-04-20 20:15 44.26315 132.96048 32825 ft 522 kts 44°
2026-04-20 20:16 44.28920 132.99606 33097 ft 527 kts 44°
2026-04-20 20:16 44.31554 133.03207 33364 ft 532 kts 44°
2026-04-20 20:16 44.34194 133.06821 33618 ft 536 kts 44°
2026-04-20 20:16 44.36865 133.10481 33859 ft 540 kts 44°
2026-04-20 20:17 44.39549 133.14165 34128 ft 542 kts 44°
2026-04-20 20:17 44.42265 133.17898 34386 ft 545 kts 44°
2026-04-20 20:17 44.44960 133.21607 34701 ft 547 kts 44°
2026-04-20 20:17 44.47666 133.25336 35069 ft 546 kts 43°
2026-04-20 20:18 44.50385 133.29090 35443 ft 546 kts 43°
2026-04-20 20:18 44.53086 133.32822 35786 ft 546 kts 43°
2026-04-20 20:18 44.55789 133.36564 36144 ft 546 kts 43°
2026-04-20 20:18 44.58456 133.40260 36519 ft 546 kts 43°
2026-04-20 20:19 44.61154 133.44003 36888 ft 545 kts 43°
2026-04-20 20:19 44.63847 133.47746 37270 ft 545 kts 43°
2026-04-20 20:19 44.66547 133.51503 37671 ft 544 kts 43°
2026-04-20 20:19 44.69230 133.55241 38051 ft 544 kts 43°
2026-04-20 20:20 44.71921 133.58997 38403 ft 543 kts 43°
2026-04-20 20:20 44.74603 133.62745 38685 ft 544 kts 43°
2026-04-20 20:20 44.77283 133.66494 38963 ft 544 kts 44°
2026-04-20 20:20 44.79964 133.70250 39237 ft 544 kts 44°
2026-04-20 20:21 44.82641 133.74008 39494 ft 544 kts 44°
2026-04-20 20:21 44.85321 133.77773 39771 ft 544 kts 44°
2026-04-20 20:21 44.88004 133.81549 40032 ft 544 kts 44°
2026-04-20 20:21 44.90675 133.85245 40272 ft 544 kts 41°
2026-04-20 20:22 44.92635 133.87539 40429 ft 543 kts 35°
2026-04-20 20:22 44.96655 133.91741 40614 ft 543 kts 34°
2026-04-20 20:22 45.02823 133.97913 40617 ft 543 kts 33°
2026-04-20 20:23 45.09008 134.04040 40618 ft 543 kts 33°
2026-04-20 20:23 45.15183 134.10197 40616 ft 543 kts 34°
2026-04-20 20:24 45.21336 134.16372 40608 ft 543 kts 34°
2026-04-20 20:24 45.27510 134.22593 40609 ft 543 kts 34°
2026-04-20 20:25 45.33675 134.28818 40599 ft 543 kts 34°
2026-04-20 20:25 45.39817 134.35035 40603 ft 542 kts 34°
2026-04-20 20:26 45.45959 134.41275 40603 ft 542 kts 34°
2026-04-20 20:26 45.52107 134.47536 40598 ft 542 kts 35°
2026-04-20 20:27 45.58229 134.53786 40601 ft 542 kts 35°
2026-04-20 20:27 45.64319 134.60021 40597 ft 541 kts 35°
2026-04-20 20:28 45.70438 134.66303 40594 ft 541 kts 35°
2026-04-20 20:28 45.76553 134.72598 40593 ft 541 kts 35°
2026-04-20 20:29 45.82663 134.78905 40594 ft 541 kts 36°
2026-04-20 20:29 45.89106 134.84442 40593 ft 540 kts 21°
2026-04-20 20:30 45.96322 134.87096 40591 ft 535 kts
2026-04-20 20:30 46.02460 134.88071 40592 ft 534 kts
2026-04-20 20:31 46.09863 134.88930 40585 ft 535 kts
2026-04-20 20:31 46.17290 134.89849 40580 ft 535 kts
2026-04-20 20:32 46.24717 134.90859 40575 ft 535 kts
2026-04-20 20:32 46.32143 134.91903 40571 ft 535 kts
2026-04-20 20:33 46.39553 134.92950 40568 ft 535 kts
2026-04-20 20:33 46.46967 134.93995 40562 ft 535 kts
2026-04-20 20:34 46.54337 134.95034 40558 ft 535 kts
2026-04-20 20:34 46.61759 134.96083 40555 ft 535 kts
2026-04-20 20:35 46.69171 134.97134 40548 ft 535 kts
2026-04-20 20:35 46.76593 134.98189 40549 ft 535 kts
2026-04-20 20:36 46.84007 134.98795 40554 ft 531 kts 351°
2026-04-20 20:36 46.87571 134.97594 40541 ft 523 kts 336°
2026-04-20 20:36 46.90768 134.95199 40539 ft 514 kts 321°
2026-04-20 20:37 46.93414 134.91771 40539 ft 504 kts 306°
2026-04-20 20:37 46.95335 134.87566 40535 ft 494 kts 291°
2026-04-20 20:37 46.96424 134.82873 40531 ft 483 kts 276°
2026-04-20 20:37 46.96619 134.78025 40531 ft 474 kts 261°
2026-04-20 20:38 46.95925 134.73366 40535 ft 466 kts 246°
2026-04-20 20:38 46.94403 134.69225 40534 ft 461 kts 231°
2026-04-20 20:38 46.92179 134.65908 40537 ft 457 kts 216°
2026-04-20 20:38 46.89403 134.63633 40539 ft 457 kts 201°
2026-04-20 20:39 46.86304 134.62592 40538 ft 460 kts 186°
2026-04-20 20:39 46.83097 134.62856 40539 ft 466 kts 171°
2026-04-20 20:39 46.80059 134.64391 40545 ft 473 kts 156°
2026-04-20 20:39 46.77334 134.67141 40543 ft 483 kts 141°
2026-04-20 20:40 46.75139 134.70971 40543 ft 493 kts 126°
2026-04-20 20:40 46.73705 134.75484 40545 ft 503 kts 111°
2026-04-20 20:40 46.73079 134.80530 40546 ft 513 kts 96°